Tok, AK

1:13 PM AKST on December 06, 2016 (GMT -0900)
Eagle

Weather History for PAEG - December, 2013

Change the Weather History Date:

Monday, December 9, 2013

  Actual Average (PABN) Record (PABN)
Temperature  
Mean Temperature 25 °F -  
Max Temperature 27 °F 4 °F 39 °F (1996)
Min Temperature 23 °F 0 °F -20 °F (2001)
Degree Days  
Heating Degree Days 40    
Moisture  
Dew Point 22 °F    
Average Humidity 88    
Maximum Humidity 92    
Minimum Humidity 81    
Precipitation  
Precipitation 0.02 in - - ()
Sea Level Pressure  
Sea Level Pressure 30.14 in    
Wind  
Wind Speed 1 mph (East)    
Max Wind Speed 8 mph    
Max Gust Speed -    
Visibility 7 miles    
Events Snow    
Averages and records for this station are not official NWS values.
T = Trace of Precipitation, MM = Missing Value Source: NWS Daily Summary

Daily Weather History Graph

Daily Weather History Graph

Search for Another Location

Airport or City:

Trip Planner

Search our weather history database for the weather conditions in past years. The results will help you decide how hot, cold, wet, or windy it might be!

Date:

Astronomy

Dec. 09, 2013 Rise Set
Actual Time 10:13 AM AKST 2:20 PM AKST
Civil Twilight 8:53 AM AKST 3:40 PM AKST
Nautical Twilight 7:43 AM AKST 4:51 PM AKST
Astronomical Twilight 6:42 AM AKST 5:52 PM AKST
Moon 12:33 PM AKST (12/9) No Moon Set
Length of Visible Light 6h 47m
Length of Day
4h 06m
First Quarter, 52% of the Moon is Illuminated
Dec 9
First Quarter
Dec 17
Full
Dec 25
Last Quarter
Jan 1
New
Jan 7
First Quarter

Hourly Weather History & Observations

Time (AKST) Temp. Windchill Dew Point Humidity Pressure Visibility Wind Dir Wind Speed Gust Speed Precip Events Conditions
12:09 AM 23.0 °F - 19.0 °F 85% 30.13 in 10.0 mi Calm Calm - N/A   Overcast
12:53 AM 23.0 °F - 19.9 °F 88% 30.17 in 7.0 mi Calm Calm - N/A   Overcast
1:45 AM 23.0 °F - 19.9 °F 88% 30.11 in 3.0 mi Calm Calm - 0.00 in Snow Light Snow
1:53 AM 24.1 °F - 19.9 °F 84% 30.16 in 2.5 mi Calm Calm - 0.00 in Snow Light Snow
2:06 AM 23.0 °F - 19.9 °F 88% 30.11 in 1.8 mi Calm Calm - 0.01 in Snow Light Snow
2:16 AM 23.0 °F - 21.0 °F 92% 30.11 in 3.0 mi Calm Calm - 0.01 in Snow Light Snow
2:37 AM 23.0 °F - 19.9 °F 88% 30.12 in 3.0 mi Calm Calm - 0.01 in Snow Light Snow
2:48 AM 24.8 °F - 21.2 °F 86% 30.12 in 3.0 mi Calm Calm - 0.01 in Snow Light Snow
3:00 AM 23.0 °F - 19.9 °F 88% 30.11 in 1.5 mi Calm Calm - 0.01 in Snow Light Snow
3:11 AM 23.0 °F - 19.9 °F 88% 30.11 in 2.0 mi Calm Calm - 0.01 in Snow Light Snow
3:19 AM 23.0 °F - 21.0 °F 92% 30.11 in 3.0 mi Calm Calm - 0.01 in Snow Light Snow
3:49 AM 24.8 °F - 21.2 °F 86% 30.11 in 5.0 mi Calm Calm - 0.01 in Snow Light Snow
3:53 AM 24.1 °F - 19.9 °F 84% 30.16 in 6.0 mi Calm Calm - 0.01 in   Overcast
4:16 AM 24.1 °F - 21.0 °F 88% 30.11 in 9.0 mi Calm Calm - N/A   Overcast
4:53 AM 23.0 °F - 19.9 °F 88% 30.15 in 10.0 mi Calm Calm - N/A   Overcast
5:37 AM 24.1 °F - 19.9 °F 84% 30.11 in 7.0 mi Calm Calm - 0.00 in   Overcast
5:53 AM 24.1 °F - 21.0 °F 88% 30.16 in 7.0 mi Calm Calm - 0.00 in   Overcast
6:53 AM 25.0 °F - 23.0 °F 92% 30.15 in 5.0 mi Calm Calm - 0.00 in   Overcast
7:53 AM 25.0 °F - 21.9 °F 88% 30.17 in 10.0 mi Calm Calm - 0.00 in   Overcast
8:53 AM 25.0 °F - 21.9 °F 88% 30.18 in 10.0 mi Calm Calm - N/A   Overcast
9:03 AM 25.0 °F - 23.0 °F 92% 30.13 in 10.0 mi Calm Calm - N/A   Overcast
9:53 AM 25.0 °F - 21.9 °F 88% 30.19 in 10.0 mi Calm Calm - N/A   Overcast
10:53 AM 25.0 °F - 21.9 °F 88% 30.21 in 10.0 mi Calm Calm - N/A   Overcast
11:53 AM 25.0 °F - 23.0 °F 92% 30.23 in 10.0 mi Calm Calm - N/A   Overcast
12:53 PM 26.1 °F - 23.0 °F 88% 30.24 in 10.0 mi Calm Calm - N/A   Overcast
1:53 PM 26.1 °F - 24.1 °F 92% 30.23 in 10.0 mi Calm Calm - N/A   Overcast
2:53 PM 25.0 °F - 23.0 °F 92% 30.22 in 9.0 mi Calm Calm - N/A   Overcast
3:53 PM 25.0 °F - 21.9 °F 88% 30.21 in 10.0 mi Calm Calm - N/A   Overcast
4:53 PM 25.0 °F 20.7 °F 21.0 °F 85% 30.19 in 10.0 mi Variable 3.5 mph - N/A   Overcast
5:53 PM 25.0 °F 20.7 °F 21.0 °F 85% 30.18 in 10.0 mi Variable 3.5 mph - N/A   Overcast
6:53 PM 26.1 °F 20.5 °F 21.9 °F 84% 30.15 in 10.0 mi East 4.6 mph - N/A   Overcast
7:01 PM 26.1 °F 20.5 °F 21.9 °F 84% 30.11 in 10.0 mi East 4.6 mph - N/A   Overcast
7:53 PM 27.0 °F 21.6 °F 21.9 °F 81% 30.13 in 10.0 mi Variable 4.6 mph - N/A   Overcast
8:38 PM 27.0 °F 23.0 °F 24.1 °F 89% 30.08 in 10.0 mi East 3.5 mph - N/A   Overcast
8:53 PM 27.0 °F 23.0 °F 23.0 °F 85% 30.12 in 10.0 mi Variable 3.5 mph - N/A   Overcast
9:36 PM 26.1 °F - 23.0 °F 88% 30.06 in 10.0 mi Calm Calm - N/A   Overcast
9:51 PM 26.6 °F 22.6 °F 23.0 °F 86% 30.06 in 10.0 mi Variable 3.5 mph - N/A   Overcast
9:53 PM 27.0 °F 21.6 °F 23.0 °F 85% 30.10 in 10.0 mi ENE 4.6 mph - N/A   Overcast
10:27 PM 27.0 °F 19.5 °F 23.0 °F 85% 30.05 in 2.0 mi NE 6.9 mph - 0.00 in Snow Light Snow
10:53 PM 27.0 °F 23.0 °F 24.1 °F 89% 30.08 in 2.0 mi East 3.5 mph - 0.00 in Snow Light Snow
11:31 PM 27.0 °F 20.5 °F 24.1 °F 89% 30.02 in 1.5 mi Variable 5.8 mph - 0.01 in Snow Light Snow
11:53 PM 27.0 °F 18.7 °F 24.1 °F 89% 30.05 in 2.0 mi ESE 8.1 mph - 0.01 in Snow Light Snow